FW4463 Weather Reports


time (UTC)temp
C
wind
direction
speed
KPH
gust
KPH
rain 1hr
cm
rain 24hr
cm
rain mn
cm
humidity
%
barometer
mb
20260506164410 20 143 1.6 4.8 0.00 0.00 0.00 47 1020.6
20260506164132 19 209 1.6 4.8 0.00 0.00 0.00 48 1020.6
20260506163407 18 119 0.0 3.2 0.00 0.00 0.00 49 1020.6
20260506162907 18 101 0.0 3.2 0.00 0.00 0.00 51 1020.7
20260506162632 17 45 0.0 0.0 0.00 0.00 0.00 51 1020.7
20260506161901 17 130 0.0 3.2 0.00 0.00 0.00 51 1020.7
20260506161402 18 107 0.0 3.2 0.00 0.00 0.00 50 1020.7
20260506161126 18 53 0.0 4.8 0.00 0.00 0.00 50 1020.6
20260506160400 17 101 0.0 4.8 0.00 0.00 0.00 52 1020.7
20260506155902 17 70 0.0 4.8 0.00 0.00 0.00 54 1020.6
20260506155402 16 117 0.0 4.8 0.00 0.00 0.00 55 1020.7
20260506154902 16 57 0.0 0.0 0.00 0.00 0.00 55 1020.6
20260506154400 16 18 0.0 0.0 0.00 0.00 0.00 54 1020.6
20260506153902 16 264 0.0 0.0 0.00 0.00 0.00 55 1020.7
20260506153401 16 264 0.0 0.0 0.00 0.00 0.00 54 1020.7
20260506152901 16 266 0.0 0.0 0.00 0.00 0.00 54 1020.6
20260506152627 16 265 0.0 0.0 0.00 0.00 0.00 55 1020.6
20260506151901 16 273 0.0 0.0 0.00 0.00 0.00 55 1020.6
20260506151402 16 273 0.0 0.0 0.00 0.00 0.00 55 1020.6
20260506150901 16 274 0.0 0.0 0.00 0.00 0.00 54 1020.6
20260506150401 17 274 0.0 0.0 0.00 0.00 0.00 54 1020.6
20260506145901 17 215 0.0 0.0 0.00 0.00 0.00 53 1020.5
20260506145401 17 254 0.0 0.0 0.00 0.00 0.00 54 1020.5
20260506145123 16 254 0.0 0.0 0.00 0.00 0.00 57 1020.4
20260506144618 15 254 0.0 0.0 0.00 0.00 0.00 58 1020.4
20260506143857 15 254 0.0 0.0 0.00 0.00 0.00 59 1020.3
20260506143352 15 252 0.0 0.0 0.00 0.00 0.00 60 1020.3
20260506143114 14 249 0.0 0.0 0.00 0.00 0.00 61 1020.3
20260506142352 14 205 0.0 1.6 0.00 0.00 0.00 62 1020.3
20260506141853 13 241 0.0 1.6 0.00 0.00 0.00 63 1020.3
20260506141618 13 300 0.0 0.0 0.00 0.00 0.00 64 1020.2
20260506141116 13 320 0.0 0.0 0.00 0.00 0.00 65 1020.1
20260506140346 12 319 0.0 0.0 0.00 0.00 0.00 65 1020.0
20260506135845 12 319 0.0 0.0 0.00 0.00 0.00 65 1020.0
20260506135345 12 319 0.0 0.0 0.00 0.00 0.00 65 1019.9
20260506135108 12 319 0.0 0.0 0.00 0.00 0.00 64 1019.9
20260506135053 12 319 0.0 0.0 0.00 0.00 0.00 64 1019.9
20260506133845 12 319 0.0 0.0 0.00 0.00 0.00 64 1019.9
20260506133343 12 319 0.0 0.0 0.00 0.00 0.00 64 1019.9
20260506132844 12 319 0.0 0.0 0.00 0.00 0.00 64 1019.9
20260506132609 12 319 0.0 0.0 0.00 0.00 0.00 64 1019.8
20260506131843 12 319 0.0 0.0 0.00 0.00 0.00 63 1019.8
20260506131340 12 319 0.0 0.0 0.00 0.00 0.00 63 1019.8
20260506130842 12 319 0.0 0.0 0.00 0.00 0.00 63 1019.7
20260506130832 12 319 0.0 0.0 0.00 0.00 0.00 63 1019.7
20260506130106 12 319 0.0 0.0 0.00 0.00 0.00 63 1019.7
20260506125339 12 319 0.0 0.0 0.00 0.00 0.00 63 1019.7
20260506124840 12 319 0.0 0.0 0.00 0.00 0.00 63 1019.7
20260506124338 12 319 0.0 0.0 0.00 0.00 0.00 62 1019.7
20260506123839 13 319 0.0 0.0 0.00 0.00 0.00 62 1019.6
20260506123338 13 319 0.0 0.0 0.00 0.00 0.00 62 1019.5
20260506122839 13 319 0.0 0.0 0.00 0.00 0.00 62 1019.5
20260506122605 13 319 0.0 0.0 0.00 0.00 0.00 62 1019.6
20260506122059 13 319 0.0 0.0 0.00 0.00 0.00 62 1019.6
20260506121339 13 319 0.0 0.0 0.00 0.00 0.00 62 1019.5
20260506120834 13 322 0.0 0.0 0.00 0.00 0.00 62 1019.6
20260506120334 13 322 0.0 0.0 0.00 0.00 0.00 62 1019.5
20260506115835 13 223 0.0 0.0 0.00 0.00 0.00 62 1019.5
20260506115335 13 223 0.0 0.0 0.00 0.00 0.00 62 1019.5
20260506114835 13 223 0.0 0.0 0.00 0.00 0.00 62 1019.5
20260506114334 13 222 0.0 1.6 0.00 0.00 0.00 62 1019.5
20260506114052 13 223 0.0 1.6 0.00 0.00 0.00 62 1019.4
20260506113335 13 237 0.0 0.0 0.00 0.00 0.00 62 1019.4
20260506112834 13 207 0.0 1.6 0.00 0.00 0.00 62 1019.4
20260506112330 13 207 0.0 3.2 0.00 0.00 0.00 62 1019.3
20260506111831 13 207 0.0 3.2 0.00 0.00 0.00 62 1019.3
20260506111331 13 207 0.0 1.6 0.00 0.00 0.00 62 1019.3
20260506110830 13 203 0.0 0.0 0.00 0.00 0.00 62 1019.2
20260506110823 13 250 0.0 1.6 0.00 0.00 0.00 62 1019.2
20260506105830 13 250 0.0 1.6 0.00 0.00 0.00 62 1019.1
20260506105331 13 250 0.0 1.6 0.00 0.03 0.00 62 1019.1
20260506105104 13 250 0.0 1.6 0.00 0.03 0.00 62 1019.1
20260506104331 13 264 0.0 1.6 0.00 0.03 0.00 62 1019.2
20260506103831 12 286 0.0 0.0 0.00 0.03 0.00 62 1019.1
20260506103331 12 286 0.0 0.0 0.00 0.03 0.00 62 1019.1
20260506103058 12 21 0.0 0.0 0.00 0.03 0.00 63 1019.1
20260506102330 12 21 0.0 0.0 0.00 0.03 0.00 63 1019.1
20260506101830 12 21 0.0 0.0 0.00 0.03 0.00 63 1019.0
20260506101328 12 23 0.0 0.0 0.00 0.03 0.00 63 1018.9
20260506100830 12 24 0.0 0.0 0.00 0.03 0.00 63 1018.9
20260506100329 12 23 0.0 0.0 0.00 0.03 0.00 63 1019.0
20260506095829 12 23 0.0 0.0 0.00 0.03 0.00 64 1018.9
20260506095329 12 234 0.0 0.0 0.00 0.03 0.00 64 1019.0
20260506094830 12 234 0.0 0.0 0.00 0.03 0.00 64 1019.1
20260506094556 12 234 0.0 0.0 0.00 0.03 0.00 65 1019.1
20260506093828 12 234 0.0 0.0 0.00 0.03 0.00 65 1019.0
20260506093330 12 234 0.0 0.0 0.00 0.03 0.00 65 1019.0
20260506092829 12 234 0.0 0.0 0.00 0.03 0.00 65 1019.1
20260506092329 12 234 0.0 0.0 0.00 0.03 0.00 65 1019.0
20260506091830 12 234 0.0 0.0 0.00 0.03 0.00 64 1019.0
20260506091329 12 234 0.0 0.0 0.00 0.03 0.00 64 1019.0
20260506090830 12 234 0.0 0.0 0.00 0.03 0.00 64 1018.9
20260506090329 12 234 0.0 0.0 0.00 0.03 0.00 63 1018.9
20260506085828 12 234 0.0 0.0 0.00 0.05 0.00 63 1018.9
20260506085329 12 234 0.0 0.0 0.00 0.05 0.00 63 1019.0
20260506084829 12 234 0.0 0.0 0.00 0.05 0.00 63 1019.0
20260506084553 12 234 0.0 0.0 0.00 0.05 0.00 63 1019.1
20260506083822 12 234 0.0 0.0 0.00 0.05 0.00 63 1019.0
20260506083317 12 219 0.0 0.0 0.00 0.05 0.00 63 1019.0
20260506083038 12 219 0.0 0.0 0.00 0.05 0.00 63 1019.0
20260506082305 12 219 0.0 0.0 0.00 0.05 0.00 63 1019.1
20260506082034 12 219 0.0 0.0 0.00 0.05 0.00 63 1019.1
20260506081304 12 219 0.0 0.0 0.00 0.08 0.00 63 1019.1
20260506080804 13 219 0.0 0.0 0.00 0.10 0.00 63 1019.1
20260506080303 13 219 0.0 0.0 0.00 0.10 0.00 63 1019.1
20260506072801 13 219 0.0 1.6 0.00 0.20 0.00 63 1018.9
20260506072530 13 200 0.0 0.0 0.00 0.23 0.00 63 1018.8
20260506071801 13 194 0.0 0.0 0.00 0.23 0.00 63 1018.8
20260506071531 13 183 0.0 0.0 0.00 0.23 0.00 63 1018.7
20260506070801 13 183 0.0 0.0 0.00 0.25 0.00 63 1018.8
20260506070301 13 183 0.0 0.0 0.00 0.25 0.00 63 1018.7
20260506062244 12 209 0.0 1.6 0.00 0.28 0.25 64 1018.4
20260506061741 12 250 0.0 1.6 0.00 0.28 0.25 64 1018.5
20260506061515 12 340 0.0 1.6 0.00 0.30 0.25 64 1018.3
20260506060742 12 290 0.0 1.6 0.00 0.30 0.25 65 1018.4
20260506060240 13 290 0.0 1.6 0.00 0.30 0.25 65 1018.4
20260506051231 13 188 0.0 3.2 0.00 0.38 0.25 66 1018.1
20260506050730 13 253 0.0 3.2 0.00 0.38 0.25 66 1018.0
20260506050232 13 255 0.0 1.6 0.00 0.38 0.25 66 1018.0
20260506044720 13 256 0.0 3.2 0.00 0.41 0.25 65 1017.9
20260506044218 13 255 0.0 3.2 0.00 0.43 0.25 65 1017.8
20260506043716 13 44 0.0 1.6 0.00 0.43 0.25 65 1017.7
20260506043214 13 208 0.0 1.6 0.00 0.46 0.25 65 1017.7
20260506042714 13 250 0.0 1.6 0.00 0.46 0.25 65 1017.7
20260506042446 13 162 0.0 3.2 0.00 0.46 0.25 64 1017.6
20260506041712 13 17 0.0 3.2 0.00 0.46 0.25 64 1017.6
20260506041211 13 309 0.0 1.6 0.00 0.46 0.25 63 1017.6
20260506040710 13 258 0.0 1.6 0.00 0.46 0.25 63 1017.5
20260506040208 13 252 0.0 1.6 0.00 0.46 0.25 63 1017.5
20260506035944 13 196 0.0 1.6 0.00 0.46 0.25 62 1017.4
20260506035433 13 227 0.0 1.6 0.00 0.46 0.25 62 1017.4
20260506034708 13 52 0.0 3.2 0.00 0.46 0.25 62 1017.3
20260506034208 13 257 0.0 3.2 0.00 0.46 0.25 61 1017.2
20260506033708 13 287 0.0 3.2 0.00 0.46 0.25 61 1017.2
20260506033207 13 261 0.0 3.2 0.00 0.46 0.25 61 1017.0
20260506032706 13 325 0.0 1.6 0.00 0.46 0.25 61 1017.1
20260506032206 13 331 0.0 1.6 0.00 0.46 0.25 61 1016.9
20260506031703 14 136 0.0 1.6 0.00 0.46 0.25 60 1016.7
20260506031204 14 141 0.0 1.6 0.00 0.46 0.25 60 1016.8
20260506030701 14 236 0.0 4.8 0.00 0.46 0.25 59 1016.7
20260506030201 14 228 0.0 4.8 0.00 0.46 0.25 59 1016.6
20260506025932 14 90 1.6 6.4 0.00 0.46 0.25 58 1016.5
20260506025205 15 252 1.6 6.4 0.00 0.46 0.25 58 1016.5
20260506024704 15 338 1.6 14.5 0.00 0.46 0.25 58 1016.5
20260506024202 15 297 1.6 14.5 0.00 0.46 0.25 57 1016.6
20260506023706 15 246 1.6 4.8 0.00 0.46 0.25 56 1016.6
20260506023201 15 51 1.6 6.4 0.00 0.46 0.25 56 1016.5
20260506022701 15 323 1.6 6.4 0.00 0.46 0.25 55 1016.4
20260506022201 16 194 1.6 6.4 0.00 0.46 0.25 55 1016.4
20260506021701 16 278 1.6 9.7 0.00 0.46 0.25 55 1016.3
20260506021200 16 0 1.6 9.7 0.00 0.46 0.25 54 1016.2
20260506020701 16 246 1.6 6.4 0.00 0.46 0.25 53 1016.2
20260506020201 16 157 1.6 8.0 0.00 0.46 0.25 53 1016.1
20260506015703 16 101 1.6 14.5 0.00 0.46 0.25 53 1016.1
20260506015659 16 296 1.6 14.5 0.00 0.46 0.25 52 1016.1
20260506014703 16 294 1.6 9.7 0.00 0.46 0.25 52 1016.0
20260506014202 16 331 1.6 6.4 0.00 0.46 0.25 52 1016.0
20260506013703 17 241 1.6 6.4 0.00 0.46 0.25 51 1015.9
20260506013202 16 337 1.6 4.8 0.00 0.46 0.25 52 1016.0
20260506013154 16 98 1.6 9.7 0.00 0.46 0.25 53 1016.0
20260506012201 16 250 1.6 9.7 0.00 0.46 0.25 53 1016.0
20260506011933 16 246 1.6 6.4 0.00 0.46 0.25 52 1016.2
20260506011200 16 305 1.6 6.4 0.00 0.46 0.25 52 1016.1
20260506010701 16 262 1.6 9.7 0.00 0.46 0.25 52 1016.2
20260506010425 16 235 1.6 9.7 0.00 0.46 0.25 52 1016.0
20260506005701 16 289 1.6 6.4 0.00 0.46 0.25 52 1016.2
20260506005200 16 272 1.6 8.0 0.00 0.46 0.25 52 1016.0
20260506004701 16 112 1.6 8.0 0.00 0.46 0.25 51 1015.9
20260506004200 17 292 1.6 8.0 0.00 0.46 0.25 52 1015.9
20260506003700 17 281 1.6 9.7 0.00 0.46 0.25 51 1015.8
20260506003200 17 348 1.6 9.7 0.00 0.46 0.25 52 1015.9
20260506002701 17 263 1.6 6.4 0.00 0.46 0.25 52 1015.8
20260506002201 16 290 1.6 9.7 0.00 0.46 0.25 52 1015.8
20260506001708 16 240 1.6 12.9 0.00 0.46 0.25 54 1015.6
20260506001703 16 182 1.6 9.7 0.00 0.46 0.25 53 1015.7
20260506000701 16 247 1.6 12.9 0.00 0.46 0.25 54 1015.7
20260506000200 16 240 1.6 4.8 0.00 0.46 0.25 55 1015.7
20260505235701 16 258 1.6 6.4 0.00 0.46 0.25 55 1015.7
20260505235425 16 271 1.6 6.4 0.00 0.46 0.25 56 1015.7
20260505234701 16 198 1.6 6.4 0.00 0.46 0.25 57 1015.7
20260505234200 16 236 1.6 8.0 0.00 0.46 0.25 56 1015.7
20260505233701 16 269 1.6 8.0 0.00 0.46 0.25 55 1015.8
20260505233200 16 21 1.6 6.4 0.00 0.46 0.25 56 1015.8
20260505233151 16 263 1.6 8.0 0.00 0.46 0.25 55 1015.8
20260505232200 16 267 3.2 11.3 0.00 0.46 0.25 55 1015.9
20260505231701 16 260 1.6 11.3 0.00 0.46 0.25 55 1015.8
20260505231203 16 266 1.6 9.7 0.00 0.46 0.25 55 1015.8
20260505230702 16 258 1.6 9.7 0.00 0.46 0.25 55 1015.8
20260505230201 17 271 1.6 9.7 0.00 0.46 0.25 55 1015.8
20260505225701 17 98 1.6 8.0 0.00 0.46 0.25 55 1015.8
20260505225201 17 284 1.6 9.7 0.00 0.46 0.25 55 1015.8
20260505224700 17 242 3.2 9.7 0.00 0.46 0.25 54 1015.8
20260505224201 17 273 3.2 9.7 0.00 0.46 0.25 54 1015.7
20260505224156 17 251 3.2 12.9 0.00 0.46 0.25 53 1015.8
20260505223201 17 206 1.6 12.9 0.00 0.46 0.25 52 1015.8
20260505222701 18 269 1.6 8.0 0.00 0.46 0.25 52 1015.7
20260505222159 18 288 1.6 8.0 0.00 0.46 0.25 53 1015.7
20260505221653 18 267 1.6 8.0 0.00 0.46 0.25 51 1015.8
20260505221150 18 49 3.2 8.0 0.00 0.46 0.25 52 1015.8
20260505220912 18 266 1.6 6.4 0.00 0.46 0.25 52 1015.7
20260505220147 18 19 3.2 9.7 0.00 0.46 0.25 53 1015.8
20260505215910 18 300 1.6 9.7 0.00 0.46 0.25 51 1015.9
20260505215406 18 257 0.0 6.4 0.00 0.46 0.25 51 1015.9
20260505214645 18 240 1.6 6.4 0.00 0.46 0.25 53 1015.9
20260505214142 17 84 1.6 6.4 0.00 0.46 0.25 54 1016.0
20260505213641 17 247 1.6 6.4 0.00 0.46 0.25 54 1015.9
20260505213142 17 320 1.6 8.0 0.00 0.46 0.25 55 1016.1
20260505212641 17 136 1.6 8.0 0.00 0.46 0.25 53 1016.1
20260505212401 17 250 1.6 8.0 0.00 0.46 0.25 53 1016.1
20260505211639 17 339 1.6 6.4 0.00 0.46 0.25 54 1016.1
20260505211401 17 92 1.6 6.4 0.00 0.46 0.25 55 1016.0
20260505210639 17 215 1.6 6.4 0.00 0.46 0.25 55 1016.2
20260505210138 17 248 1.6 8.0 0.00 0.46 0.25 54 1016.2
20260505205633 17 108 1.6 8.0 0.00 0.46 0.25 55 1016.1
20260505205129 17 233 3.2 11.3 0.00 0.46 0.25 55 1016.0
20260505204629 16 275 3.2 11.3 0.00 0.46 0.25 54 1016.1
20260505204130 17 200 1.6 11.3 0.00 0.46 0.25 53 1016.2
20260505203629 17 117 1.6 8.0 0.00 0.46 0.25 54 1016.0
20260505203131 17 163 1.6 3.2 0.00 0.46 0.25 55 1016.2
20260505202630 17 5 1.6 4.8 0.00 0.46 0.25 54 1016.2
20260505202131 17 225 1.6 6.4 0.00 0.46 0.25 54 1016.2
20260505201629 17 325 0.0 8.0 0.00 0.46 0.25 53 1016.3
20260505201131 17 263 0.0 8.0 0.00 0.46 0.25 53 1016.2
20260505200629 17 317 0.0 4.8 0.00 0.46 0.25 53 1016.2
20260505200131 17 214 0.0 4.8 0.00 0.46 0.25 54 1016.3
20260505195629 17 151 0.0 1.6 0.00 0.46 0.25 55 1016.3
20260505195129 17 226 0.0 4.8 0.00 0.46 0.25 57 1016.2
20260505194627 16 203 0.0 6.4 0.00 0.46 0.25 57 1016.2
20260505194126 16 263 1.6 6.4 0.00 0.46 0.25 57 1016.3
20260505193623 16 246 1.6 6.4 0.00 0.46 0.25 57 1016.4
20260505193123 16 90 1.6 6.4 0.00 0.46 0.25 57 1016.4
20260505192623 16 272 1.6 6.4 0.00 0.46 0.25 58 1016.4
20260505192122 16 259 1.6 6.4 0.00 0.46 0.25 58 1016.3
20260505191617 16 294 0.0 4.8 0.00 0.46 0.25 58 1016.2
20260505191109 16 349 1.6 6.4 0.00 0.46 0.25 58 1016.3
20260505190609 16 301 1.6 6.4 0.00 0.46 0.25 57 1016.3
20260505190331 16 232 0.0 3.2 0.00 0.46 0.25 57 1016.3
20260505185842 16 139 0.0 4.8 0.00 0.46 0.25 58 1016.1
20260505185107 16 271 0.0 4.8 0.00 0.46 0.25 58 1016.0
20260505184835 16 294 0.0 3.2 0.00 0.46 0.25 58 1016.0
20260505184107 16 92 0.0 3.2 0.00 0.46 0.25 59 1016.1
20260505183609 16 226 0.0 3.2 0.00 0.46 0.25 60 1016.1
20260505183329 15 107 0.0 3.2 0.00 0.46 0.25 61 1016.0
20260505182601 15 269 0.0 6.4 0.00 0.46 0.25 62 1016.2
20260505182101 15 246 0.0 6.4 0.00 0.46 0.25 62 1016.2
20260505181601 15 216 0.0 3.2 0.00 0.46 0.25 62 1016.1
20260505181101 15 225 0.0 3.2 0.00 0.46 0.25 61 1016.1
20260505180602 15 252 0.0 3.2 0.00 0.46 0.25 61 1016.0
20260505180101 15 330 0.0 3.2 0.00 0.46 0.25 62 1016.0
20260505175601 15 161 0.0 3.2 0.00 0.46 0.25 62 1015.9
20260505175331 15 18 0.0 1.6 0.00 0.46 0.25 63 1015.9
20260505174602 14 247 0.0 1.6 0.00 0.46 0.25 62 1015.8
20260505174101 14 288 0.0 3.2 0.00 0.46 0.25 63 1015.8
20260505173602 14 49 0.0 3.2 0.00 0.46 0.25 63 1015.7
20260505173102 14 208 0.0 4.8 0.00 0.46 0.25 64 1015.6
20260505172834 14 237 0.0 4.8 0.00 0.46 0.25 64 1015.7
20260505172101 14 245 0.0 3.2 0.00 0.46 0.25 64 1015.7
20260505171600 14 323 0.0 1.6 0.00 0.46 0.25 65 1015.7
20260505171101 14 291 0.0 3.2 0.00 0.46 0.25 66 1015.6
20260505170601 13 294 0.0 3.2 0.00 0.46 0.25 66 1015.7
20260505170101 13 267 0.0 3.2 0.00 0.46 0.25 67 1015.7
20260505165603 13 317 0.0 1.6 0.00 0.46 0.25 68 1015.7
20260505165100 13 281 0.0 3.2 0.00 0.46 0.25 70 1015.7